Regional Weather Roundup
Issued by NWS

Home | Current Version | Previous Version | Graphics & Text | Print | Product List | Glossary On
Versions: 1 2 3 4 5 6 7 8 9 10 11 12 13 14 15 16 17 18 19 20 21 22 23 24 25 26 27
000
ASUS43 KDMX 190307
RWRIA

WEATHER ROUNDUP FOR IOWA
NATIONAL WEATHER SERVICE DES MOINES IA
1000 PM CDT FRI APR 18 2014

NOTE: "FAIR" INDICATES FEW OR NO CLOUDS BELOW 12,000 FEET WITH NO
SIGNIFICANT WEATHER AND/OR OBSTRUCTIONS TO VISIBILITY.

* - THESE STATIONS ARE NOT NWS STATIONS...THUS NOT UNDER NWS
QUALITY CONTROL.  THEY ALSO DO NOT REPORT WEATHER SUCH
AS PRECIPITATION OR FOG.

IAZ001>003-012>014-020>022-031>034-043>046-190400-
   NORTHWEST IOWA

CITY           SKY/WX    TMP DP  RH WIND       PRES   REMARKS
CARROLL *      CLOUDY    52  34  50 SE12      30.12S
CHEROKEE *     CLOUDY    57  34  41 SE17G23   30.07R
DENISON *      CLOUDY    57  36  44 S15G22    30.09R
LE MARS *      CLEAR     59  37  44 SE18G26   30.01S
ORANGE CITY *  CLEAR     57  34  41 SE15G22   30.02S
SHELDON *      MOCLDY    55  34  44 SE21      30.02S
SIOUX CITY     CLOUDY    59  39  47 SE16      30.02S
SPENCER        CLOUDY    54  32  43 SE18      30.08S
STORM LAKE *   CLEAR     52  34  50 SE15      30.10R
$$

IAZ055>058-069>071-079>083-090>094-190400-
   SOUTHWEST IOWA

CITY           SKY/WX    TMP DP  RH WIND       PRES   REMARKS
ATLANTIC *     MOCLDY    57  37  47 SE10G16   30.12S
AUDUBON *      CLEAR     52  34  50 SE5       30.14S
CLARINDA *     CLEAR     55  37  50 S7        30.16R
COUNCIL BLFS * CLOUDY    57  41  54 S14       30.10R
CRESTON *      CLEAR     50  39  66 SE8       30.17R
HARLAN  *      CLEAR     55  37  50 S8        30.15R
LAMONI         CLEAR     56  40  55 SE8       30.18R
RED OAK *      CLEAR     57  39  51 S9        30.14R
SHENANDOAH *   CLOUDY    54  39  58 SE9       30.14S
$$

IAZ047>049-059>061-072>074-084-190400-
   CENTRAL IOWA

CITY           SKY/WX    TMP DP  RH WIND       PRES   REMARKS
AMES           MOCLDY    51  31  46 SE7       30.17S
ANKENY *       CLEAR     52  36  54 SE8       30.17F
CHARITON *     PTCLDY    52  39  62 SE8       30.19S
DES MOINES     PTCLDY    57  35  43 SE12      30.18S
GRINNELL*      PTCLDY    50  30  46 E7        30.22R
KNOXVILLE *    CLEAR     55  32  41 SE10      30.19S
MARSHALLTOWN   MOCLDY    46  31  55 E8        30.20R
NEWTON *       CLEAR     52  30  43 SE13      30.20S
PELLA *        PTCLDY    52  32  46 SE7       30.21S
PERRY *          N/A     48  34  57 SE9       30.16S
$$

IAZ004>006-015-016-023>025-035-036-190400-
   NORTH CENTRAL IOWA

CITY           SKY/WX    TMP DP  RH WIND       PRES   REMARKS
ALGONA *       CLEAR     50  32  50 SE16      30.13F
CLARION *      CLEAR     50  30  46 SE15G21   30.16F
ESTHERVILLE    MOCLDY    49  33  54 SE17      30.09F
FORT DODGE *   PTCLDY    54  30  40 SE14      30.15S
MASON CITY     MOCLDY    47  32  56 SE13      30.19F
FOREST CITY *  CLEAR     46  32  57 SE13      30.16F
IOWA FALLS *     N/A     46  32  57 SE9       30.20S
$$

IAZ007>011-017>019-026>030-037>042-050>054-066-190400-
   NORTHEAST IOWA

CITY           SKY/WX    TMP DP  RH WIND       PRES   REMARKS
CEDAR RAPIDS   CLEAR     46  30  53 E9        30.23S
CHARLES CITY * CLEAR     48  32  53 SE10      30.23R
CLINTON *      CLEAR     43  30  61 E10       30.31R
DECORAH *      CLOUDY    48  28  46 SE8       30.24S
DUBUQUE        CLEAR     47  30  51 E12       30.28S
MONTICELLO *   CLEAR     50  32  50 E8        30.25S
OELWEIN *      CLEAR    N/A N/A N/A E13G21    30.24S
WATERLOO       PTCLDY    47  31  53 SE7       30.23R
$$

IAZ064-065-067-068-078-190400-
   EAST CENTRAL IOWA

CITY           SKY/WX    TMP DP  RH WIND       PRES   REMARKS
DAVENPORT      CLEAR     49  31  49 E9        30.29R
IOWA CITY      CLEAR     54  30  40 E7        30.25S
MT. PLEASANT * CLEAR     48  30  49 E6        30.24S
MUSCATINE *    CLEAR     48  34  57 CALM      30.25S
QUAD CITIES    CLEAR     47  32  56 E6        30.27R
$$

IAZ062-063-075>077-085>089-095>099-190400-
   SOUTHEAST IOWA

CITY           SKY/WX    TMP DP  RH WIND       PRES   REMARKS
BURLINGTON     CLEAR     55  30  38 E5        30.24R
FAIRFIELD *    CLEAR     48  28  46 SE8       30.23S
FORT MADISON * CLEAR     54  30  40 E3        30.25S
KEOKUK *       CLEAR     54  30  40 E5        30.23F
OSKALOOSA *      N/A     52  32  46 SE10      30.22S
CENTERVILLE *  CLEAR     50  36  57 E7        30.22S
OTTUMWA        PTCLDY    48  31  51 SE8       30.21S
WASHINGTON *   CLEAR     46  30  53 E10       30.23F
$$

ABBREVIATIONS USED IN REMARKS
   TC - TEMPERATURES IN CELSIUS
  WCI - WIND CHILL INDEX
   HX - HEAT INDEX
  VSB - VISIBILITY
$$




USA.gov is the U.S. government's official web portal to all federal, state and local government web resources and services.